EDT,Max TemperatureF,Mean TemperatureF,Min TemperatureF,Max Dew PointF,MeanDew PointF,Min DewpointF,Max Humidity, Mean Humidity, Min Humidity, Max Sea Level PressureIn, Mean Sea Level PressureIn, Min Sea Level PressureIn, Max VisibilityMiles, Mean VisibilityMiles, Min VisibilityMiles, Max Wind SpeedMPH, Mean Wind SpeedMPH, Max Gust SpeedMPH,PrecipitationIn, CloudCover, Events, WindDirDegrees
2013-5-1,73,62,50,53,51,49,100,72,44,30.21,30.16,30.09,10,10,4,16,6,22,0.00,5,,106
2013-5-2,73,64,55,53,50,48,80,63,46,30.21,30.17,30.14,10,10,10,18,7,25,0.00,6,,103
2013-5-3,68,59,49,55,46,38,86,60,34,30.15,30.08,30.02,10,10,10,18,9,29,0.00,5,,98
2013-5-4,63,57,50,46,41,28,66,54,41,30.02,29.98,29.92,10,10,9,22,10,33,0.03,7,Rain,98
2013-5-5,60,55,50,52,47,43,89,78,66,29.94,29.84,29.78,10,10,10,24,7,32,0.11,8,Rain,73
2013-5-6,69,59,48,54,50,43,93,68,42,29.88,29.79,29.73,10,9,2,15,5,22,0.58,7,Rain,66
2013-5-7,63,55,46,54,50,44,100,82,64,29.97,29.91,29.85,10,7,2,10,2,14,0.31,7,Rain,298
2013-5-8,67,59,51,56,54,52,100,79,58,30.02,29.96,29.89,10,7,2,17,7,22,0.01,7,,237
2013-5-9,76,64,51,58,54,50,100,73,46,30.14,30.07,30.00,10,4,0,15,2,21,0.01,6,Fog-Rain-Thunderstorm,210
2013-5-10,77,64,50,64,56,49,100,77,54,30.12,30.02,29.92,10,4,0,18,3,23,0.06,6,Fog-Rain-Thunderstorm,239
2013-5-11,71,63,55,62,58,49,100,81,61,29.98,29.90,29.81,10,7,1,21,6,26,0.10,7,Rain-Thunderstorm,245
2013-5-12,62,52,41,49,38,30,89,61,32,30.08,29.99,29.91,10,10,7,20,9,27,T,3,Rain,294
2013-5-13,63,49,35,38,31,27,92,59,25,30.19,30.13,30.08,10,10,9,20,6,26,0.00,2,,272
2013-5-14,74,55,35,51,42,33,92,65,37,30.22,30.12,30.00,10,10,10,20,5,26,0.00,1,,221
2013-5-15,83,67,50,57,54,49,96,68,40,30.09,30.02,29.94,10,10,7,18,6,25,0.00,0,,238
2013-5-16,76,64,52,58,55,51,100,75,50,30.03,29.99,29.96,10,10,4,14,4,18,T,5,,222
2013-5-17,82,68,54,61,57,52,100,71,42,30.10,30.04,29.98,10,8,1,28,1,36,0.68,6,Rain-Thunderstorm,148
2013-5-18,72,65,57,64,61,57,100,87,73,30.08,30.04,30.00,10,6,2,16,2,20,0.28,8,Rain,168
2013-5-19,82,73,63,65,63,59,93,74,54,30.10,30.01,29.95,10,8,2,18,3,24,0.03,7,Rain,195
2013-5-20,81,71,61,65,62,60,100,79,58,30.15,30.05,29.97,10,8,2,8,2,11,0.17,6,Rain-Thunderstorm,109
2013-5-21,86,73,59,66,62,59,100,72,44,30.11,30.01,29.87,10,4,0,25,3,34,0.10,4,Fog-Rain-Thunderstorm,247
2013-5-22,84,72,59,65,62,58,100,76,51,30.00,29.93,29.86,10,6,0,20,3,26,0.73,5,Fog-Rain-Thunderstorm,77
2013-5-23,77,69,60,64,61,54,100,77,54,29.99,29.91,29.83,10,6,1,23,5,29,0.84,7,Rain-Thunderstorm,254
2013-5-24,66,57,47,54,45,35,86,60,34,30.25,30.11,29.93,10,10,8,20,8,26,T,5,Rain,319
2013-5-25,71,56,40,44,41,37,100,67,33,30.37,30.28,30.18,10,7,0,13,3,18,0.00,4,Fog,287
2013-5-26,73,63,53,51,46,41,83,60,36,30.27,30.21,30.16,10,10,10,13,3,16,0.01,5,Rain,290
2013-5-27,82,66,49,61,54,49,96,69,42,30.21,30.15,30.06,10,10,5,14,3,18,0.04,3,,252
2013-5-28,85,71,56,61,58,55,100,70,40,30.16,30.10,30.05,10,9,2,16,4,23,0.00,3,,269
2013-5-29,86,71,56,61,58,56,93,67,40,30.19,30.12,30.07,10,10,9,9,2,12,0.00,2,,320
2013-5-30,87,72,57,62,57,54,93,64,34,30.22,30.14,30.07,10,10,10,13,3,18,0.00,4,,156
2013-5-31,87,73,58,61,57,53,93,63,32,30.14,30.09,30.02,10,10,10,14,5,19,0.00,2,,178